Вернуться в каталог

STARLINK-36647

АктивенСвязьVLEO
NORAD 67824·PAYLOAD·🇺🇸 United States

Запущен Feb 16, 2026 с Vandenberg Space Force Base

Loading…

Ближайшие Пролёты (ближайшие 24 часа)

TLE

СвежийSource: CelesTrak SupGP

Эпоха: Sep 15, 2026, 03:00 UTC

1 67824C 26033D   26258.12548611 -.00008360  00000+0 -30276-3 0  2589
2 67824  43.0019 277.1001 0001242 264.3359 224.6017 15.27587025    10

Отслеживайте STARLINK-36647 в реальном времени с AllMySat

Download on the App Store